235  
ASUS43 KTOP 171508  
RWRKS  
 
WEATHER ROUNDUP FOR KANSAS  
NATIONAL WEATHER SERVICE GOODLAND KS  
900 AM CST SUN DEC 17 2017  
 
NOTE: "FAIR" INDICATES FEW OR NO CLOUDS BELOW 12,000 FEET WITH NO  
SIGNIFICANT WEATHER AND/OR S TO VISIBILITY
.  
 
KSZ001>006-013>018-027>032-041>047-171600-  
NORTHWEST KANSAS  
 
CITY SKY/WX TMP DP RH WIND PRES REMARKS
 
GOODLAND CLOUDY 33 31 92 N10 30.03R WCI 25  
HAYS SUNNY 34 29 82 N16 30.00R WCI 24  
HILL CITY MOCLDY 32 29 88 NW10 30.04R WCI 24  
RUSSELL PTSUNNY 35 30 82 N10 29.98R WCI 27  

 
 
KSZ061>065-074>080-084>089-171600-  
SOUTHWEST KANSAS  
 
CITY SKY/WX TMP DP RH WIND PRES REMARKS
 
DODGE CITY CLOUDY 29 26 89 N9 30.01R FOG  
ELKHART CLOUDY 35 31 87 N23 30.01R WCI 23  
GARDEN CITY CLOUDY 32 28 85 N20G25 30.01R WCI 20  
GREAT BEND SUNNY 34 27 75 NW8 30.01R  
LIBERAL CLOUDY 31 28 89 N20 30.00S WCI 19  
PRATT CLOUDY 38 36 91 W9 30.00F  

 
 
KSZ066>073-081>083-090>101-171600-  
SOUTHEAST KANSAS  
 
CITY SKY/WX TMP DP RH WIND PRES REMARKS
 
CHANUTE CLOUDY 44 43 96 SW7 30.06R FOG  
COFFEYVILLE CLOUDY 44 44 100 SW6 30.07R FOG  
HUTCHINSON CLOUDY 40 40 100 S8 30.01S FOG  
MEDICINE LODGE N/A 42 38 85 CALM 29.99F  
NEWTON PTSUNNY 41 39 93 SW13 30.03R  
PARSONS CLOUDY 44 44 100 SW5 30.07R FOG  
WICHITA INTL CLOUDY 45 42 89 SW7 30.03R  
WICHITA JABRA CLOUDY 44 42 93 SW10 30.03R  
WICHITA MCCONL CLOUDY 44 41 90 SW8 30.02S  
WINFIELD CLOUDY 44 44 100 SW6 30.04S  

 
 
KSZ007>012-019>026-033>040-048>060-102>105-171600-  
NORTHEAST KANSAS  
 
CITY SKY/WX TMP DP RH WIND PRES REMARKS
 
CONCORDIA CLOUDY 37 33 85 NW10 29.99R WCI 30  
EMPORIA CLOUDY 44 41 89 SW7 30.03R  
LAWRENCE CLOUDY 44 44 100 S8 30.04R  
MANHATTAN CLOUDY 45 42 89 S5 30.01R FOG  
MARYSVILLE CLOUDY 41 41 100 SW6 30.01R  
OLATHE IND CLOUDY 43 43 100 S9 30.04R FOG  
OLATHE EXE CLOUDY 42 42 100 S10 30.04R FOG  
SALINA PTSUNNY 44 42 93 S8 30.01R  
TOPEKA BILLARD CLOUDY 44 44 100 S6 30.03R  
TOPEKA FORBES CLOUDY 45 43 93 S9 30.03R  

 
 
 
CLICK HERE TO GO TO PREVIOUS BULLETINS.

The Nexlab KS Page Main Text Page